When you browse on this site, cookies collect data to enhance your experience and personalize the content and advertising you see.
Visit our Privacy Policy to learn more. By continuing to use the site, you agree to this use of cookies and data.
  • In Romania
  • List of Countries
  • For 7 days
  • Water Temperature
  • Weather Map
  • Weather Widgets
  • user-avatar
    Login

    Hourly Weather Salamanca

    Today, 20 November, Wednesday

    Time Temperature Precipitation Wind Pressure Humidity
    00:00 +5°C° 0 mm 3 mps 689 mmHg 74%
    01:00 +5°C° 0.6 mm 3 mps 689 mmHg 78%
    02:00 +4°C° 0.6 mm 3 mps 688 mmHg 82%
    03:00 +4°C° 0.6 mm 3 mps 688 mmHg 87%
    04:00 +4°C° 0.6 mm 3 mps 687 mmHg 86%
    05:00 +4°C° 0.6 mm 4 mps 687 mmHg 85%
    06:00 +4°C° 0 mm 3 mps 687 mmHg 82%
    07:00 +4°C° 0.7 mm 4 mps 687 mmHg 83%
    08:00 +4°C° 0.7 mm 4 mps 687 mmHg 85%
    09:00 +4°C° 0.7 mm 4 mps 687 mmHg 86%
    10:00 +4°C° 1.1 mm 4 mps 687 mmHg 86%
    11:00 +4°C° 1.1 mm 4 mps 687 mmHg 87%
    12:00 +5°C° 1.1 mm 5 mps 686 mmHg 87%
    13:00 +5°C° 0 mm 5 mps 686 mmHg 84%
    14:00 +6°C° 0 mm 5 mps 686 mmHg 81%
    15:00 +5°C° 0 mm 6 mps 685 mmHg 79%
    16:00 +5°C° 0 mm 5 mps 685 mmHg 83%
    17:00 +3°C° 0 mm 5 mps 685 mmHg 86%
    18:00 +3°C° 0 mm 4 mps 685 mmHg 90%
    19:00 +3°C° 0 mm 5 mps 685 mmHg 90%
    20:00 +3°C° 0 mm 5 mps 685 mmHg 89%
    21:00 +3°C° 0 mm 5 mps 685 mmHg 89%
    22:00 +3°C° 0 mm 5 mps 685 mmHg 90%
    23:00 +2°C° 0 mm 5 mps 685 mmHg 91%

    Tomorrow, 21 November, Thursday

    Time Temperature Precipitation Wind Pressure Humidity
    00:00 +2°C° 0 mm 5 mps 685 mmHg 93%
    01:00 +2°C° 0.1 mm 5 mps 685 mmHg 93%
    02:00 +2°C° 0.1 mm 5 mps 685 mmHg 93%
    03:00 +2°C° 0.1 mm 5 mps 685 mmHg 93%
    04:00 +2°C° 0.1 mm 5 mps 685 mmHg 93%
    05:00 +3°C° 0.1 mm 5 mps 685 mmHg 92%
    06:00 +3°C° 0.1 mm 5 mps 685 mmHg 92%
    07:00 +3°C° 0 mm 5 mps 685 mmHg 91%
    08:00 +5°C° 0 mm 5 mps 686 mmHg 89%
    09:00 +5°C° 0 mm 5 mps 686 mmHg 88%
    10:00 +6°C° 0.1 mm 5 mps 686 mmHg 83%
    11:00 +7°C° 0.1 mm 5 mps 686 mmHg 77%
    12:00 +8°C° 0.1 mm 5 mps 686 mmHg 72%
    13:00 +8°C° 0.2 mm 5 mps 686 mmHg 72%
    14:00 +8°C° 0.2 mm 5 mps 685 mmHg 71%
    15:00 +8°C° 0.2 mm 5 mps 685 mmHg 71%
    16:00 +7°C° 0.1 mm 4 mps 685 mmHg 77%
    17:00 +6°C° 0.1 mm 4 mps 685 mmHg 83%
    18:00 +5°C° 0.1 mm 3 mps 685 mmHg 89%
    19:00 +5°C° 0 mm 3 mps 685 mmHg 89%
    20:00 +5°C° 0 mm 4 mps 685 mmHg 90%
    21:00 +5°C° 0 mm 4 mps 685 mmHg 90%
    22:00 +5°C° 0 mm 4 mps 684 mmHg 90%
    23:00 +5°C° 0 mm 5 mps 684 mmHg 90%

    Day after tomorrow, 22 November, Friday

    Time Temperature Precipitation Wind Pressure Humidity
    00:00 +3°C° 0 mm 6 mps 683 mmHg 90%
    01:00 +4°C° 0.3 mm 7 mps 683 mmHg 90%
    02:00 +4°C° 0.3 mm 8 mps 682 mmHg 89%
    03:00 +3°C° 0.3 mm 9 mps 681 mmHg 88%
    04:00 +5°C° 1.4 mm 9 mps 680 mmHg 87%
    05:00 +5°C° 1.4 mm 10 mps 679 mmHg 87%
    06:00 +5°C° 1.4 mm 10 mps 678 mmHg 86%
    07:00 +6°C° 1.3 mm 10 mps 677 mmHg 86%
    08:00 +6°C° 1.3 mm 10 mps 676 mmHg 87%
    09:00 +7°C° 1.3 mm 10 mps 675 mmHg 87%
    10:00 +7°C° 4.6 mm 9 mps 675 mmHg 89%
    11:00 +7°C° 4.6 mm 8 mps 674 mmHg 90%
    12:00 +7°C° 4.6 mm 8 mps 674 mmHg 92%
    13:00 +7°C° 0.3 mm 8 mps 674 mmHg 89%
    14:00 +7°C° 0.3 mm 9 mps 673 mmHg 85%
    15:00 +6°C° 0.3 mm 10 mps 673 mmHg 82%
    16:00 +6°C° 1.3 mm 10 mps 673 mmHg 84%
    17:00 +6°C° 1.3 mm 11 mps 673 mmHg 87%
    18:00 +6°C° 1.3 mm 11 mps 673 mmHg 89%
    19:00 +4°C° 1.2 mm 11 mps 674 mmHg 89%
    20:00 +5°C° 1.2 mm 10 mps 674 mmHg 90%
    21:00 +5°C° 1.2 mm 10 mps 674 mmHg 90%
    22:00 +3°C° 1.1 mm 10 mps 675 mmHg 90%
    23:00 +3°C° 1.1 mm 11 mps 676 mmHg 90%

    23 November, Saturday

    Time Temperature Precipitation Wind Pressure Humidity
    00:00 +2°C° 1.1 mm 11 mps 676 mmHg 90%
    01:00 +2°C° 0.1 mm 10 mps 677 mmHg 88%
    02:00 +1°C° 0.1 mm 10 mps 678 mmHg 86%
    03:00 +1°C° 0.1 mm 9 mps 678 mmHg 84%
    04:00 +1°C° 0 mm 9 mps 679 mmHg 85%
    05:00 0°C° 0 mm 8 mps 680 mmHg 85%
    06:00 0°C° 0 mm 8 mps 680 mmHg 86%
    07:00 +1°C° 0 mm 8 mps 681 mmHg 85%
    08:00 +1°C° 0 mm 8 mps 682 mmHg 84%
    09:00 +2°C° 0 mm 8 mps 683 mmHg 83%
    10:00 +2°C° 0 mm 8 mps 683 mmHg 79%
    11:00 +3°C° 0 mm 9 mps 684 mmHg 76%
    12:00 +5°C° 0 mm 9 mps 684 mmHg 73%
    13:00 +5°C° 0.1 mm 9 mps 684 mmHg 72%
    14:00 +6°C° 0.1 mm 8 mps 684 mmHg 71%
    15:00 +6°C° 0.1 mm 8 mps 685 mmHg 70%
    16:00 +5°C° 0.1 mm 7 mps 685 mmHg 75%
    17:00 +4°C° 0.1 mm 6 mps 686 mmHg 79%
    18:00 +5°C° 0.1 mm 5 mps 686 mmHg 84%
    19:00 +3°C° 0 mm 5 mps 687 mmHg 87%
    20:00 +3°C° 0 mm 5 mps 687 mmHg 90%
    21:00 +2°C° 0 mm 5 mps 688 mmHg 93%
    22:00 +2°C° 0 mm 5 mps 688 mmHg 93%
    23:00 +2°C° 0 mm 5 mps 689 mmHg 93%

    24 November, Sunday

    Time Temperature Precipitation Wind Pressure Humidity
    00:00 +1°C° 0 mm 5 mps 689 mmHg 93%
    01:00 +1°C° 0 mm 5 mps 689 mmHg 93%
    02:00 +1°C° 0 mm 5 mps 689 mmHg 93%
    03:00 +1°C° 0 mm 5 mps 690 mmHg 94%
    04:00 +1°C° 0 mm 4 mps 690 mmHg 94%
    05:00 0°C° 0 mm 4 mps 690 mmHg 95%
    06:00 +1°C° 0 mm 3 mps 691 mmHg 96%
    07:00 +2°C° 0 mm 3 mps 691 mmHg 94%
    08:00 +2°C° 0 mm 3 mps 692 mmHg 92%
    09:00 +3°C° 0 mm 3 mps 692 mmHg 90%
    10:00 +4°C° 0 mm 3 mps 692 mmHg 83%
    11:00 +7°C° 0 mm 3 mps 693 mmHg 75%
    12:00 +8°C° 0 mm 3 mps 693 mmHg 68%
    13:00 +8°C° 0 mm 3 mps 693 mmHg 66%
    14:00 +9°C° 0 mm 3 mps 693 mmHg 64%
    15:00 +9°C° 0 mm 3 mps 692 mmHg 61%
    16:00 +8°C° 0 mm 3 mps 693 mmHg 67%
    17:00 +7°C° 0 mm 2 mps 693 mmHg 72%
    18:00 +5°C° 0 mm 2 mps 693 mmHg 77%
    19:00 +5°C° 0 mm 2 mps 693 mmHg 79%
    20:00 +5°C° 0 mm 2 mps 694 mmHg 80%
    21:00 +5°C° 0 mm 2 mps 694 mmHg 81%
    22:00 +4°C° 0 mm 3 mps 694 mmHg 82%
    23:00 +4°C° 0 mm 3 mps 694 mmHg 83%

    25 November, Monday

    Time Temperature Precipitation Wind Pressure Humidity
    00:00 +4°C° 0 mm 3 mps 695 mmHg 84%
    01:00 +4°C° 0 mm 3 mps 694 mmHg 86%
    02:00 +4°C° 0 mm 3 mps 694 mmHg 88%
    03:00 +5°C° 0 mm 3 mps 694 mmHg 90%
    04:00 +5°C° 0 mm 3 mps 694 mmHg 90%
    05:00 +5°C° 0 mm 3 mps 694 mmHg 90%
    06:00 +7°C° 0 mm 3 mps 694 mmHg 91%
    07:00 +8°C° 0 mm 3 mps 695 mmHg 89%
    08:00 +8°C° 0 mm 3 mps 695 mmHg 88%
    09:00 +9°C° 0 mm 3 mps 696 mmHg 86%
    10:00 +10°C° 0 mm 4 mps 696 mmHg 83%
    11:00 +12°C° 0 mm 5 mps 696 mmHg 79%
    12:00 +14°C° 0 mm 5 mps 696 mmHg 75%
    13:00 +14°C° 0 mm 5 mps 696 mmHg 75%
    14:00 +14°C° 0 mm 5 mps 695 mmHg 75%
    15:00 +14°C° 0 mm 4 mps 695 mmHg 75%
    16:00 +13°C° 0 mm 4 mps 695 mmHg 80%
    17:00 +11°C° 0 mm 3 mps 695 mmHg 85%
    18:00 +10°C° 0 mm 2 mps 695 mmHg 90%
    19:00 +10°C° 0 mm 2 mps 695 mmHg 90%
    20:00 +10°C° 0 mm 2 mps 695 mmHg 89%
    21:00 +9°C° 0 mm 3 mps 695 mmHg 89%
    22:00 +9°C° 0 mm 3 mps 695 mmHg 88%
    23:00 +10°C° 0 mm 3 mps 695 mmHg 87%
    Show more